Regional Weather Roundup
Issued by NWS State College, PA

Home | Current Version | Previous Version | Text Only | Print | Product List | Glossary On
Versions: 1 2 3 4 5 6 7 8 9 10 11 12 13 14 15 16 17 18 19 20 21 22 23 24 25 26 27 28 29 30 31 32 33 34 35 36 37 38 39 40 41 42 43 44 45 46 47 48 49 50
000
ASUS41 KCTP 231803
RWRCTP

REGIONAL WEATHER ROUNDUP
NATIONAL WEATHER SERVICE STATE COLLEGE PA
200 PM EDT TUE AUG 23 2016

Note: "fair" indicates few or no clouds below 12,000 feet with no
significant weather and/or obstructions to visibility.

* = STATION THAT DOES NOT REPORT PRECIPITATION /E.G. RAIN...SNOW...ETC/
    THUNDER OR FOG.

PAZ002>004-007>009-013>016-020>023-029>032-231900-
WESTERN PENNSYLVANIA

CITY           SKY/WX    TMP DP  RH WIND       PRES   REMARKS
ERIE           SUNNY     80  57  45 SW10      30.28F
MEADVILLE      PTSUNNY   76  55  48 S7        30.32S
FRANKLIN*      MOSUNNY   75  55  50 SW5       30.33S
NEW CASTLE     FAIR      79  57  46 VRB7      30.30F
BEAVER COUNTY  PTSUNNY   79  57  47 S5        30.31F
BUTLER*        NOT AVBL
PITTSBURGH INT PTSUNNY   78  55  44 VRB5      30.31S
PITTSBURGH     MOSUNNY   79  55  43 VRB6      30.30F
INDIANA*       MOSUNNY   77  57  50 CALM      30.35F
LATROBE        MOSUNNY   77  57  50 S6        30.32F
WASHINGTON CO* MOSUNNY   77  57  50 SW6       30.32S
$$

PAZ004>006-010>012-017>019-024>028-033>037-041-042-045-046-049>053-231900-
CENTRAL PENNSYLVANIA

CITY           SKY/WX    TMP DP  RH WIND       PRES   REMARKS
BRADFORD       SUNNY     73  53  49 VRB5      30.34F
DUBOIS         MOSUNNY   75  53  46 SW7       30.33F
CLEARFIELD     MOSUNNY   77  56  48 SW7       30.33F
JOHNSTOWN      MOSUNNY   74  55  51 SW6       30.35F
ALTOONA        SUNNY     77  56  48 S6        30.35F
STATE COLLEGE  MOSUNNY   75  57  53 S7        30.33F
WILLIAMSPORT   SUNNY     78  57  48 SE8       30.29F
SELINSGROVE    SUNNY     79  59  50 SE6       30.32F
FT INDIANTOWN  MOSUNNY   78  57  48 SW10      30.32S
CAPITAL CITY   MOSUNNY   81  55  40 VRB3      30.31F
HARRISBURG     MOSUNNY   81  58  45 CALM      30.31F
YORK           SUNNY     80  54  40 VRB3      30.32F
$$

PAZ038>040-043-044-047-048-054-055-060>062-067>071-231900-
EASTERN PENNSYLVANIA

CITY           SKY/WX    TMP DP  RH WIND       PRES   REMARKS
SCRANTON       SUNNY     77  56  48 SW7       30.31F
MOUNT POCONO   SUNNY     73  49  42 W6        30.35S
ALLENTOWN      SUNNY     79  55  43 W9        30.31F
QUAKERTOWN*    CLEAR     79  55  44 CALM      30.33S
READING        SUNNY     80  53  39 W8        30.31F
LANCASTER      SUNNY     79  57  46 VRB3      30.32F
COATESVILLE    CLEAR     77  54  44 VRB7      30.34F
POTTSTOWN      SUNNY     79  53  40 SW6       30.33F
BLUE BELL      SUNNY     77  54  44 N3        30.31F
DOYLESTOWN     SUNNY     81  55  40 NW7       30.31F
WILLOW GROVE   NOT AVBL
NORTH PHILA    SUNNY     81  54  39 MISG      30.32F
PHILADELPHIA   MOSUNNY   80  51  36 VRB7      30.31F
$$




USA.gov is the U.S. government's official web portal to all federal, state and local government web resources and services.